When you browse on this site, cookies collect data to enhance your experience and personalize the content and advertising you see.
Visit our Privacy Policy to learn more. By continuing to use the site, you agree to this use of cookies and data.
  • In Österreich
  • Länderverzeichnis
  • Für 7 Tage
  • Wassertemperatur
  • Wetterkarte
  • News
  • Widgets
  • user-avatar
    Anmelden

    Stündliche Wetter Corozal

    Heute, 27 Januar, Montag

    Zeit Temperatur Niederschläge Wind Luftdruck Luftfeuchtigkeit
    00:00 +22°C° 0 mm 1 m/S 760 mmHg 91%
    01:00 +22°C° 0 mm 1 m/S 760 mmHg 92%
    02:00 +22°C° 0 mm 1 m/S 760 mmHg 93%
    03:00 +21°C° 0 mm 1 m/S 759 mmHg 94%
    04:00 +21°C° 0 mm 1 m/S 759 mmHg 94%
    05:00 +21°C° 0 mm 1 m/S 759 mmHg 94%
    06:00 +21°C° 0 mm 1 m/S 760 mmHg 95%
    07:00 +23°C° 0 mm 1 m/S 760 mmHg 88%
    08:00 +25°C° 0 mm 1 m/S 761 mmHg 81%
    09:00 +27°C° 0 mm 1 m/S 761 mmHg 74%
    10:00 +28°C° 0 mm 1 m/S 761 mmHg 69%
    11:00 +30°C° 0 mm 1 m/S 760 mmHg 63%
    12:00 +31°C° 0 mm 1 m/S 760 mmHg 58%
    13:00 +31°C° 0 mm 1 m/S 759 mmHg 58%
    14:00 +31°C° 0 mm 2 m/S 758 mmHg 59%
    15:00 +31°C° 0 mm 2 m/S 758 mmHg 59%
    16:00 +29°C° 0 mm 2 m/S 758 mmHg 66%
    17:00 +27°C° 0 mm 2 m/S 758 mmHg 74%
    18:00 +25°C° 0 mm 3 m/S 758 mmHg 81%
    19:00 +25°C° 0 mm 2 m/S 759 mmHg 83%
    20:00 +24°C° 0 mm 2 m/S 759 mmHg 86%
    21:00 +24°C° 0 mm 2 m/S 759 mmHg 88%
    22:00 +23°C° 0 mm 1 m/S 759 mmHg 90%
    23:00 +23°C° 0 mm 1 m/S 759 mmHg 91%

    Morgen, 28 Januar, Dienstag

    Zeit Temperatur Niederschläge Wind Luftdruck Luftfeuchtigkeit
    00:00 +23°C° 0 mm 1 m/S 759 mmHg 93%
    01:00 +23°C° 0 mm 1 m/S 758 mmHg 94%
    02:00 +22°C° 0 mm 1 m/S 758 mmHg 95%
    03:00 +22°C° 0 mm 1 m/S 758 mmHg 97%
    04:00 +22°C° 0 mm 1 m/S 758 mmHg 97%
    05:00 +22°C° 0 mm 1 m/S 758 mmHg 97%
    06:00 +19°C° 0 mm 0 m/S 758 mmHg 98%
    07:00 +21°C° 0 mm 0 m/S 759 mmHg 91%
    08:00 +25°C° 0 mm 1 m/S 759 mmHg 84%
    09:00 +27°C° 0 mm 1 m/S 759 mmHg 78%
    10:00 +29°C° 0 mm 1 m/S 759 mmHg 73%
    11:00 +30°C° 0 mm 1 m/S 759 mmHg 68%
    12:00 +31°C° 0 mm 2 m/S 758 mmHg 64%
    13:00 +31°C° 0 mm 2 m/S 758 mmHg 64%
    14:00 +31°C° 0 mm 2 m/S 757 mmHg 64%
    15:00 +31°C° 0 mm 2 m/S 756 mmHg 65%
    16:00 +29°C° 0 mm 2 m/S 757 mmHg 71%
    17:00 +27°C° 0 mm 2 m/S 757 mmHg 77%
    18:00 +26°C° 0 mm 2 m/S 757 mmHg 83%
    19:00 +25°C° 0 mm 2 m/S 757 mmHg 85%
    20:00 +25°C° 0 mm 2 m/S 758 mmHg 87%
    21:00 +25°C° 0 mm 2 m/S 758 mmHg 89%
    22:00 +24°C° 0 mm 2 m/S 758 mmHg 91%
    23:00 +24°C° 0 mm 2 m/S 758 mmHg 92%

    übermorgen, 29 Januar, Mittwoch

    Zeit Temperatur Niederschläge Wind Luftdruck Luftfeuchtigkeit
    00:00 +24°C° 0 mm 1 m/S 759 mmHg 94%
    01:00 +24°C° 0 mm 1 m/S 758 mmHg 95%
    02:00 +24°C° 0 mm 1 m/S 758 mmHg 96%
    03:00 +23°C° 0 mm 1 m/S 758 mmHg 97%
    04:00 +23°C° 0 mm 1 m/S 758 mmHg 97%
    05:00 +21°C° 0 mm 0 m/S 758 mmHg 97%
    06:00 +21°C° 0 mm 0 m/S 758 mmHg 97%
    07:00 +23°C° 0 mm 0 m/S 759 mmHg 91%
    08:00 +27°C° 0 mm 1 m/S 759 mmHg 84%
    09:00 +28°C° 0 mm 1 m/S 760 mmHg 78%
    10:00 +29°C° 0 mm 1 m/S 759 mmHg 73%
    11:00 +30°C° 0 mm 2 m/S 759 mmHg 69%
    12:00 +31°C° 0 mm 2 m/S 759 mmHg 64%
    13:00 +31°C° 0 mm 2 m/S 758 mmHg 64%
    14:00 +31°C° 0 mm 2 m/S 757 mmHg 64%
    15:00 +31°C° 0 mm 2 m/S 757 mmHg 64%
    16:00 +30°C° 0.3 mm 2 m/S 757 mmHg 71%
    17:00 +28°C° 0.3 mm 2 m/S 757 mmHg 79%
    18:00 +26°C° 0.3 mm 2 m/S 758 mmHg 86%
    19:00 +26°C° 0.3 mm 2 m/S 758 mmHg 89%
    20:00 +25°C° 0.3 mm 1 m/S 759 mmHg 91%
    21:00 +25°C° 0.3 mm 1 m/S 759 mmHg 94%
    22:00 +24°C° 0.4 mm 1 m/S 759 mmHg 95%
    23:00 +24°C° 0.4 mm 1 m/S 759 mmHg 96%

    30 Januar, Donnerstag

    Zeit Temperatur Niederschläge Wind Luftdruck Luftfeuchtigkeit
    00:00 +24°C° 0.4 mm 1 m/S 759 mmHg 97%
    01:00 +24°C° 0.4 mm 1 m/S 759 mmHg 97%
    02:00 +23°C° 0.4 mm 1 m/S 759 mmHg 98%
    03:00 +23°C° 0.4 mm 1 m/S 758 mmHg 98%
    04:00 +23°C° 0.1 mm 1 m/S 759 mmHg 98%
    05:00 +23°C° 0.1 mm 1 m/S 759 mmHg 98%
    06:00 +23°C° 0.1 mm 1 m/S 759 mmHg 98%
    07:00 +24°C° 0 mm 1 m/S 759 mmHg 95%
    08:00 +26°C° 0 mm 1 m/S 760 mmHg 91%
    09:00 +27°C° 0 mm 1 m/S 760 mmHg 87%
    10:00 +28°C° 0 mm 1 m/S 760 mmHg 81%
    11:00 +29°C° 0 mm 2 m/S 759 mmHg 74%
    12:00 +30°C° 0 mm 2 m/S 759 mmHg 67%
    13:00 +30°C° 0 mm 2 m/S 758 mmHg 67%
    14:00 +30°C° 0 mm 3 m/S 758 mmHg 66%
    15:00 +30°C° 0 mm 3 m/S 757 mmHg 65%
    16:00 +29°C° 0 mm 3 m/S 757 mmHg 72%
    17:00 +27°C° 0 mm 2 m/S 757 mmHg 78%
    18:00 +26°C° 0 mm 2 m/S 757 mmHg 84%
    19:00 +25°C° 0 mm 2 m/S 758 mmHg 86%
    20:00 +25°C° 0 mm 2 m/S 758 mmHg 88%
    21:00 +25°C° 0 mm 2 m/S 759 mmHg 90%
    22:00 +25°C° 0 mm 2 m/S 759 mmHg 91%
    23:00 +25°C° 0 mm 2 m/S 759 mmHg 91%

    31 Januar, Freitag

    Zeit Temperatur Niederschläge Wind Luftdruck Luftfeuchtigkeit
    00:00 +25°C° 0 mm 2 m/S 758 mmHg 92%
    01:00 +25°C° 0 mm 2 m/S 758 mmHg 91%
    02:00 +25°C° 0 mm 2 m/S 758 mmHg 90%
    03:00 +25°C° 0 mm 2 m/S 758 mmHg 89%
    04:00 +25°C° 0 mm 2 m/S 758 mmHg 88%
    05:00 +25°C° 0 mm 2 m/S 758 mmHg 87%
    06:00 +26°C° 0 mm 2 m/S 758 mmHg 86%
    07:00 +26°C° 0 mm 3 m/S 759 mmHg 85%
    08:00 +27°C° 0 mm 3 m/S 759 mmHg 83%
    09:00 +27°C° 0 mm 3 m/S 760 mmHg 82%
    10:00 +28°C° 0 mm 3 m/S 760 mmHg 78%
    11:00 +29°C° 0 mm 4 m/S 759 mmHg 74%
    12:00 +30°C° 0 mm 4 m/S 759 mmHg 70%
    13:00 +30°C° 0 mm 4 m/S 759 mmHg 69%
    14:00 +30°C° 0 mm 3 m/S 758 mmHg 68%
    15:00 +30°C° 0 mm 3 m/S 758 mmHg 67%
    16:00 +29°C° 0 mm 3 m/S 758 mmHg 73%
    17:00 +27°C° 0 mm 2 m/S 758 mmHg 79%
    18:00 +26°C° 0 mm 1 m/S 758 mmHg 85%
    19:00 +25°C° 0 mm 1 m/S 759 mmHg 88%
    20:00 +25°C° 0 mm 1 m/S 760 mmHg 90%
    21:00 +24°C° 0 mm 1 m/S 760 mmHg 93%
    22:00 +24°C° 0 mm 1 m/S 760 mmHg 94%
    23:00 +24°C° 0 mm 1 m/S 760 mmHg 95%

    1 Februar, Samstag

    Zeit Temperatur Niederschläge Wind Luftdruck Luftfeuchtigkeit
    00:00 +24°C° 0 mm 1 m/S 760 mmHg 96%
    01:00 +24°C° 0 mm 1 m/S 760 mmHg 95%
    02:00 +24°C° 0 mm 1 m/S 760 mmHg 95%
    03:00 +24°C° 0 mm 2 m/S 760 mmHg 95%
    04:00 +24°C° 0 mm 2 m/S 760 mmHg 96%
    05:00 +23°C° 0 mm 2 m/S 761 mmHg 96%
    06:00 +23°C° 0 mm 2 m/S 761 mmHg 97%
    07:00 +25°C° 0 mm 2 m/S 762 mmHg 91%
    08:00 +26°C° 0 mm 2 m/S 762 mmHg 86%
    09:00 +27°C° 0 mm 2 m/S 763 mmHg 80%
    10:00 +29°C° 0.1 mm 2 m/S 763 mmHg 72%
    11:00 +30°C° 0.1 mm 2 m/S 762 mmHg 63%
    12:00 +32°C° 0.1 mm 2 m/S 762 mmHg 55%
    13:00 +31°C° 0.6 mm 2 m/S 762 mmHg 60%
    14:00 +30°C° 0.6 mm 2 m/S 761 mmHg 66%
    15:00 +30°C° 0.6 mm 3 m/S 761 mmHg 71%
    16:00 +28°C° 1.1 mm 3 m/S 762 mmHg 77%
    17:00 +27°C° 1.1 mm 3 m/S 762 mmHg 83%
    18:00 +25°C° 1.1 mm 3 m/S 762 mmHg 89%
    19:00 +25°C° 0.6 mm 4 m/S 763 mmHg 91%
    20:00 +23°C° 0.6 mm 4 m/S 764 mmHg 92%
    21:00 +23°C° 0.6 mm 4 m/S 765 mmHg 94%
    22:00 +22°C° 0 mm 4 m/S 765 mmHg 93%
    23:00 +21°C° 0 mm 4 m/S 765 mmHg 93%
    Mehr zeigen